Weather History for ESNS - August, 2013

Change the Weather History Date:

Saturday, August 24, 2013

  Actual Average Record
Temperature  
Mean Temperature 60 °F -  
Max Temperature 73 °F - - ()
Min Temperature 48 °F - - ()
Degree Days  
Heating Degree Days 4    
Growing Degree Days 10 (Base 50)    
Moisture  
Dew Point 48 °F    
Average Humidity 67    
Maximum Humidity 94    
Minimum Humidity 38    
Precipitation  
Precipitation 0.00 in - - ()
Sea Level Pressure  
Sea Level Pressure 30.21 in    
Wind  
Wind Speed 4 mph ()    
Max Wind Speed 9 mph    
Max Gust Speed -    
Visibility 6.2 miles    
Events      
T = Trace of Precipitation, MM = Missing Value Source: Averaged Metar Reports

Daily Weather History Graph

Daily Weather History Graph

Search for Another Location

Airport or City:

Trip Planner

Search our weather history database for the weather conditions in past years. The results will help you decide how hot, cold, wet, or windy it might be!

Date:

Astronomy

Aug. 24, 2013 Rise Set
Actual Time 4:51 AM CEST 8:22 PM CEST
Civil Twilight 3:52 AM CEST 9:20 PM CEST
Nautical Twilight 2:16 AM CEST 10:52 PM CEST
Astronomical Twilight Sun does not rise Sun does not rise
Moon 8:13 PM CEST (8/24) 10:16 AM CEST (8/24)
Length of Visible Light 17h 28m
Length of Day
15h 30m
Waning Gibbous, 86% of the Moon is Illuminated
Aug 24
Waning Gibbous
Aug 28
Last Quarter
Sep 5
New
Sep 12
First Quarter
Sep 19
Full

Hourly Weather History & Observations

Time (CEST) Temp. Dew Point Humidity Pressure Visibility Wind Dir Wind Speed Gust Speed Precip Events Conditions
12:20 AM 50.0 °F 48.2 °F 94% 30.27 in 6.2 mi West 2.3 mph - N/A   Unknown
12:50 AM 50.0 °F 48.2 °F 94% 30.27 in 6.2 mi SSW 3.5 mph - N/A   Unknown
1:20 AM 50.0 °F 48.2 °F 94% 30.27 in 6.2 mi WSW 2.3 mph - N/A   Unknown
1:50 AM 50.0 °F 48.2 °F 94% 30.27 in 6.2 mi West 2.3 mph - N/A   Unknown
2:20 AM 50.0 °F 48.2 °F 94% 30.27 in 6.2 mi Variable 2.3 mph - N/A   Unknown
2:50 AM 50.0 °F 46.4 °F 87% 30.27 in 6.2 mi WSW 3.5 mph - N/A   Unknown
3:20 AM 50.0 °F 46.4 °F 87% 30.27 in 6.2 mi SW 4.6 mph - N/A   Unknown
3:50 AM 48.2 °F 46.4 °F 93% 30.27 in 6.2 mi WSW 3.5 mph - N/A   Unknown
4:20 AM 50.0 °F 46.4 °F 87% 30.27 in 6.2 mi SW 3.5 mph - N/A   Unknown
4:50 AM 50.0 °F 46.4 °F 87% 30.24 in 6.2 mi West 4.6 mph - N/A   Unknown
5:20 AM 48.2 °F 46.4 °F 93% 30.24 in 6.2 mi Variable 2.3 mph - N/A   Unknown
5:50 AM 48.2 °F 46.4 °F 93% 30.27 in 6.2 mi WSW 3.5 mph - N/A   Unknown
6:20 AM 50.0 °F 46.4 °F 87% 30.27 in 6.2 mi Variable 2.3 mph - N/A   Unknown
6:50 AM 51.8 °F 48.2 °F 88% 30.24 in 6.2 mi SW 3.5 mph - N/A   Unknown
7:20 AM 51.8 °F 48.2 °F 88% 30.24 in 6.2 mi West 4.6 mph - N/A   Unknown
7:50 AM 55.4 °F 48.2 °F 77% 30.24 in - West 4.6 mph - N/A   Clear
8:20 AM 55.4 °F 48.2 °F 77% 30.24 in - West 5.8 mph - N/A   Clear
8:50 AM 57.2 °F 50.0 °F 77% 30.24 in - WSW 4.6 mph - N/A   Clear
9:20 AM 59.0 °F 50.0 °F 72% 30.24 in - SW 3.5 mph - N/A   Clear
9:50 AM 62.6 °F 50.0 °F 63% 30.24 in - WSW 3.5 mph - N/A   Clear
10:20 AM 64.4 °F 50.0 °F 59% 30.24 in - SSW 4.6 mph - N/A   Clear
10:50 AM 66.2 °F 48.2 °F 52% 30.24 in - SSW 5.8 mph - N/A   Clear
11:20 AM 66.2 °F 50.0 °F 56% 30.24 in 6.2 mi SW 6.9 mph - N/A   Unknown
11:50 AM 68.0 °F 48.2 °F 49% 30.21 in 6.2 mi SW 6.9 mph - N/A   Unknown
12:20 PM 68.0 °F 46.4 °F 46% 30.21 in 6.2 mi WSW 8.1 mph - N/A   Unknown
12:50 PM 69.8 °F 46.4 °F 43% 30.21 in 6.2 mi WSW 6.9 mph - N/A   Unknown
1:20 PM 69.8 °F 48.2 °F 46% 30.21 in 6.2 mi SW 6.9 mph - N/A   Unknown
1:50 PM 71.6 °F 46.4 °F 41% 30.21 in 6.2 mi SW 4.6 mph - N/A   Unknown
2:20 PM 71.6 °F 46.4 °F 41% 30.21 in 6.2 mi WSW 6.9 mph - N/A   Unknown
2:50 PM 71.6 °F 46.4 °F 41% 30.18 in 6.2 mi SW 6.9 mph - N/A   Unknown
3:20 PM 73.4 °F 46.4 °F 38% 30.18 in 6.2 mi SW 6.9 mph - N/A   Unknown
3:50 PM 73.4 °F 46.4 °F 38% 30.18 in 6.2 mi SW 8.1 mph - N/A   Unknown
4:20 PM 71.6 °F 46.4 °F 41% 30.18 in 6.2 mi SW 9.2 mph - N/A   Unknown
4:50 PM 73.4 °F 48.2 °F 41% 30.18 in 6.2 mi SW 6.9 mph - N/A   Unknown
5:20 PM 71.6 °F 48.2 °F 43% 30.15 in 6.2 mi SW 6.9 mph - N/A   Unknown
5:50 PM 71.6 °F 46.4 °F 41% 30.15 in 6.2 mi WSW 6.9 mph - N/A   Unknown
6:20 PM 71.6 °F 46.4 °F 41% 30.15 in 6.2 mi WSW 8.1 mph - N/A   Unknown
6:50 PM 71.6 °F 48.2 °F 43% 30.15 in - WSW 5.8 mph - N/A   Clear
7:20 PM 69.8 °F 48.2 °F 46% 30.15 in - WSW 4.6 mph - N/A   Clear
7:50 PM 68.0 °F 51.8 °F 56% 30.15 in - SW 3.5 mph - N/A   Clear
8:20 PM 64.4 °F 51.8 °F 64% 30.15 in - SSW 2.3 mph - N/A   Clear
8:50 PM 62.6 °F 51.8 °F 68% 30.15 in - SSW 3.5 mph - N/A   Clear
9:20 PM 60.8 °F 51.8 °F 72% 30.15 in - SSW 3.5 mph - N/A   Clear
9:50 PM 59.0 °F 50.0 °F 72% 30.15 in - SW 3.5 mph - N/A   Clear
10:20 PM 57.2 °F 50.0 °F 77% 30.15 in - SSW 3.5 mph - N/A   Clear
10:50 PM 55.4 °F 51.8 °F 88% 30.15 in - West 3.5 mph - N/A   Clear
11:20 PM 57.2 °F 51.8 °F 82% 30.15 in - WSW 4.6 mph - N/A   Clear
11:50 PM 57.2 °F 51.8 °F 82% 30.18 in 6.2 mi West 5.8 mph - N/A   Unknown